Location: Sternwarte ZA, Rosenfeld-Brittheim
(48.2889°N, 8.6789°E)
Time: 05:47:45
(UTC+01:00)

ISS - Pass Details

Date: 09 December 2019
Orbit: 411 x 421 km, 51.6° (Epoch: 15 December)

Event Time Altitude Azimuth Distance (km) Brightness Sun altitude
Rises 19:12:27 0° 281° (W) 2,361 1.2 -25.8°
Reaches altitude 10° 19:15:42 10° 247° (WSW) 1,495 -0.1 -26.3°
Maximum altitude 19:16:54 12° 226° (SW) 1,403 -0.5 -26.5°
Drops below altitude 10° 19:18:06 10° 205° (SSW) 1,493 -0.6 -26.7°
Enters shadow 19:18:09 10° 204° (SSW) 1,499 -0.6 -26.7°
